STARLINK-1620 (46149 NORAD) Tracking and Keplerian Element Data

This shows tracking and keplerian element data for the satellite.

Feedback or suggestion? Click here.




ElementValue
Catalog46149
NameSTARLINK-1620
Epoch Orbit177
Epoch Day338.66668981
Epoch Year2020
RAAN284.8872
Inclination53.0037
Eccentricity0.0001518
Argument of Perigee57.6903
Mean Anonmoly133.6867
Mean Motion15.05554243
Decay Rate0.00024672
L11 46149U 20057AJ 20338.66668981 .00024672 00000-0 17077-2 0 9999
L22 46149 53.0037 284.8872 0001518 57.6903 133.6867 15.05554243 1771

Live tracking and technical data element details for STARLINK-1620 (NORAD 46149). STARLINK-1620 can be tracked NOW for your location showing map with azimuth and elevation plus other details from your city location.

Track the satellite on the map from your city or location and see movement details for azimuth, elevation, latitude, longitude, range, height, and movement on the map or in text.







IsCatalogInMostPopularTable: catalog: 46149, numindb: 19
Update: records affected: 1



GetName: 46149 STARLINK-1620

Hit Count: updated at: Sun, 06 Dec 2020 02:11:18 GMT